User: anonymous   Login
Location: B
(0.0000°N, 0.0000°E)
Time: 07:51:25
(UTC+02:00)
Language:

Cosmos 1025 Rocket - Orbit

View from above orbital plane
View from above orbital plane
View from above satellite
View from above satellite

Ground track
Ground track

The orbit data is extracted from the following two-line orbital elements,

1 10974U 78067B   18112.85098280  .00000095  00000-0  77813-5 0  9997
2 10974  82.4836 235.9099 0018364  41.2730 318.9871 14.87278169153582
Epoch (UTC): 22 April 2018 20:25:24
Eccentricity: 0.0018364
inclination: 82.4836°
perigee height: 593 km
apogee height: 619 km
right ascension of ascending node: 235.9099°
argument of perigee: 41.2730°
revolutions per day: 14.87278169
mean anomaly at epoch: 318.9871°
orbit number at epoch: 15358

The dashed part of the orbit path shows where the satellite is in the earth's shadow,  

DLR